Regional Weather Roundup
Issued by NWS

Home | Current Version | Previous Version | Graphics & Text | Print | Product List | Glossary On
Versions: 1 2 3 4 5 6 7 8 9 10 11 12 13 14 15 16 17 18 19 20 21 22 23 24 25 26 27 28 29 30 31 32 33 34 35 36 37 38 39 40 41 42 43 44 45 46 47 48 49 50
000
ASUS43 KFSD 232310
RWRSD

WEATHER ROUNDUP FOR SOUTH DAKOTA
NATIONAL WEATHER SERVICE SIOUX FALLS SD
600 PM CDT WED APR 23 2014

NOTE: "FAIR" INDICATES FEW OR NO CLOUDS BELOW 12,000 FEET WITH NO
SIGNIFICANT WEATHER AND/OR OBSTRUCTIONS TO VISIBILITY.


SDZ001>005-009-010-012>017-240000-
NORTHWEST AND NORTH CENTRAL SOUTH DAKOTA

CITY           SKY/WX    TMP DP  RH WIND       PRES   REMARKS
BUFFALO          N/A     54  32  43 W28G36    29.62R
FAITH            N/A     54  38  54 NW22G30   29.65R
MOBRIDGE       CLOUDY    59  44  57 NW15      29.56R
$$

SDZ012>016-024>037-041>051-057-063-072>074-240000-
SOUTHWEST AND SOUTH CENTRAL SOUTH DAKOTA

CITY           SKY/WX    TMP DP  RH WIND       PRES   REMARKS
RAPID CTY ARPT PTSUNNY   57  37  47 N29G37    29.64R
PIERRE         CLOUDY    71  44  37 NW21      29.52R
CUSTER         PTSUNNY   53  18  25 W20G29    29.70R
ELLSWORTH AFB  PTSUNNY   57  37  46 N26G35    29.65R
PHILIP         PTSUNNY   60  41  49 NW24G33   29.62R
PINE RIDGE     CLOUDY    60  41  49 N17G28    29.64R
SPEARFISH      FAIR      52  36  54 N13G21    29.72S
WINNER         MOCLDY    75  43  31 NW12      29.52R
$$

SDZ004>011-016>023-039-040-240000-
NORTHEAST SOUTH DAKOTA

CITY           SKY/WX    TMP DP  RH WIND       PRES   REMARKS
ABERDEEN       HVY RAIN  50  42  74 SE21G31   29.62S
WATERTOWN      CLOUDY    50  38  63 SE22G31   29.68S
SISSETON         N/A     42  38  85 SE20      29.75S
$$

SDZ017-020-022-023-036>040-048>070-240000-
SOUTHEAST SOUTH DAKOTA

CITY           SKY/WX    TMP DP  RH WIND       PRES   REMARKS
SIOUX FALLS    PTSUNNY   62  41  46 SE18G32   29.63F
HURON          PTSUNNY   69  42  37 SE17G24   29.54F
CHAMBERLAIN      N/A     75  44  33 W8        29.50R
MITCHELL       MOSUNNY   71  45  39 SE28      29.52F
YANKTON        PTSUNNY   68  45  42 SE21G30   29.56F
$$

ABBREVIATIONS USED IN REMARKS
   TC - TEMPERATURE IN CELSIUS
  WCI - WIND CHILL INDEX
   HX - HEAT INDEX
  VSB - VISIBILITY




USA.gov is the U.S. government's official web portal to all federal, state and local government web resources and services.